contact:dominique.lefevre@mio.osupytheas.fr, maurice.libes@osupytheas.fr, didier.mallarino@osupytheas.fr
Project:EMSO http://www.emso-fr.org/EMSO-France
Depth: 2436.0 m
Title:EMSO Ligure Ouest : Data MII capteur AQUADOPP
Date,Latitude,Longitude,X_East,Y_North,Z_Up,Amplitude_X,Amplitude_Y,Amplitude_Z,Batterie,SoundSpeed,Heading,Pitch,Roll,Pressure,TIS,Speed,Direction
, degrees North, degrees East, m.s-1, m.s-1,m.s-1, 1, 1, 1, Volt, m.s-1, degree, degree, degree, dbar, degree_C, m.s-1, degree
2021-09-12T00:04:03,42.805,6.029,-0.008,-0.01,-0.006,103.0,102.0,101.0,13.3,1505.2,327.6,-0.8,1.8,2470.686,13.28,0.012,218.7
2021-09-12T00:07:03,42.805,6.029,-0.038,-0.009,-0.053,102.0,101.0,101.0,13.4,1505.2,328.9,-0.8,1.8,2470.673,13.28,0.039,256.7
2021-09-12T00:10:03,42.805,6.029,-0.048,-0.004,-0.042,103.0,103.0,101.0,13.3,1505.2,329.9,-0.7,1.8,2470.653,13.28,0.048,265.2
2021-09-12T00:13:03,42.805,6.029,-0.04,-0.004,-0.005,103.0,103.0,101.0,13.4,1505.2,328.2,-0.7,1.8,2470.656,13.28,0.04,264.3
2021-09-12T00:16:03,42.805,6.029,-0.03,-0.02,-0.036,102.0,104.0,102.0,13.4,1505.2,328.0,-0.8,1.8,2470.684,13.28,0.036,236.3
2021-09-12T00:19:03,42.805,6.029,-0.021,-0.008,-0.018,102.0,103.0,101.0,13.4,1505.2,329.0,-0.8,1.8,2470.661,13.28,0.022,249.1
2021-09-12T00:22:03,42.805,6.029,-0.032,-0.012,-0.019,104.0,103.0,101.0,13.3,1505.2,327.1,-0.8,1.9,2470.655,13.28,0.034,249.4
2021-09-12T00:25:03,42.805,6.029,-0.038,0.002,0.009,103.0,103.0,102.0,13.4,1505.2,328.7,-0.8,1.8,2470.678,13.28,0.038,273.0
2021-09-12T00:28:03,42.805,6.029,-0.027,-0.017,-0.037,104.0,103.0,101.0,13.3,1505.2,326.1,-0.8,1.8,2470.618,13.28,0.031,237.8
2021-09-12T00:31:03,42.805,6.029,-0.017,0.0,-0.023,104.0,102.0,101.0,13.4,1505.2,327.3,-0.7,1.8,2470.641,13.28,0.017,270.0
2021-09-12T00:34:03,42.805,6.029,-0.036,0.0,-0.013,101.0,104.0,103.0,13.4,1505.2,329.7,-0.7,1.8,2470.637,13.28,0.036,270.0
2021-09-12T00:37:03,42.805,6.029,-0.039,-0.017,-0.024,103.0,103.0,101.0,13.4,1505.2,328.6,-0.8,1.8,2470.648,13.28,0.042,246.5
2021-09-12T00:40:03,42.805,6.029,-0.032,-0.002,0.004,102.0,103.0,101.0,13.4,1505.2,329.1,-0.8,1.8,2470.635,13.28,0.032,266.4
2021-09-12T00:43:03,42.805,6.029,-0.033,-0.001,-0.02,102.0,104.0,101.0,13.4,1505.2,326.0,-0.7,1.9,2470.668,13.28,0.033,268.3
2021-09-12T00:46:03,42.805,6.029,-0.021,-0.009,-0.051,104.0,103.0,100.0,13.3,1505.2,327.6,-0.8,1.8,2470.612,13.28,0.022,246.8
2021-09-12T00:49:03,42.805,6.029,-0.037,0.003,-0.02,103.0,104.0,102.0,13.4,1505.2,325.7,-0.7,1.9,2470.629,13.28,0.037,274.6
2021-09-12T00:52:03,42.805,6.029,-0.021,0.019,-0.016,104.0,102.0,102.0,13.4,1505.2,325.6,-0.8,1.8,2470.601,13.28,0.028,312.1
2021-09-12T00:55:03,42.805,6.029,-0.053,0.025,-0.017,105.0,102.0,102.0,13.4,1505.2,329.5,-0.8,1.8,2470.619,13.28,0.058,295.3
2021-09-12T00:58:03,42.805,6.029,-0.053,-0.004,-0.019,104.0,102.0,101.0,13.4,1505.2,331.6,-0.8,1.8,2470.637,13.28,0.053,265.7
2021-09-12T01:04:03,42.805,6.029,-0.056,0.028,0.007,103.0,104.0,104.0,13.4,1505.2,328.9,-0.7,1.8,2470.63,13.28,0.062,296.6
2021-09-12T01:07:03,42.805,6.029,-0.041,0.0,-0.022,102.0,102.0,102.0,13.4,1505.2,327.3,-0.7,1.8,2470.617,13.28,0.041,270.0
2021-09-12T01:10:02,42.805,6.029,-0.027,0.001,-0.016,103.0,103.0,101.0,13.3,1505.2,328.4,-0.8,1.8,2470.673,13.28,0.027,272.1
2021-09-12T01:13:03,42.805,6.029,-0.012,0.002,-0.023,102.0,104.0,101.0,13.4,1505.2,325.4,-0.8,1.8,2470.59,13.28,0.012,279.5
2021-09-12T01:16:03,42.805,6.029,-0.041,0.005,0.002,103.0,103.0,101.0,13.3,1505.2,328.2,-0.8,1.8,2470.645,13.28,0.041,277.0
2021-09-12T01:19:03,42.805,6.029,-0.04,0.001,-0.053,104.0,103.0,101.0,13.4,1505.2,326.1,-0.7,1.8,2470.581,13.28,0.04,271.4
2021-09-12T01:22:03,42.805,6.029,-0.036,-0.007,-0.01,103.0,104.0,101.0,13.3,1505.2,327.1,-0.7,1.8,2470.595,13.28,0.036,259.0
2021-09-12T01:25:03,42.805,6.029,-0.025,-0.002,-0.019,103.0,103.0,102.0,13.3,1505.2,325.0,-0.8,1.8,2470.582,13.28,0.025,265.4
2021-09-12T01:28:03,42.805,6.029,-0.046,-0.014,-0.033,103.0,102.0,102.0,13.4,1505.2,325.7,-0.8,1.8,2470.621,13.28,0.048,253.1
2021-09-12T01:31:03,42.805,6.029,-0.027,-0.009,-0.013,103.0,103.0,102.0,13.3,1505.2,328.6,-0.8,1.8,2470.604,13.28,0.028,251.6
2021-09-12T01:34:03,42.805,6.029,-0.045,-0.012,-0.047,104.0,103.0,101.0,13.3,1505.2,325.8,-0.8,1.8,2470.607,13.28,0.046,255.1
2021-09-12T01:37:03,42.805,6.029,-0.023,-0.008,-0.017,103.0,102.0,102.0,13.4,1505.2,327.1,-0.7,1.9,2470.578,13.28,0.024,250.8
2021-09-12T01:40:03,42.805,6.029,-0.028,0.008,-0.012,104.0,103.0,102.0,13.4,1505.2,331.6,-0.8,1.8,2470.632,13.28,0.029,285.9
2021-09-12T01:43:03,42.805,6.029,-0.013,-0.018,-0.008,103.0,103.0,102.0,13.3,1505.2,328.2,-0.8,1.8,2470.575,13.28,0.022,215.8
2021-09-12T01:46:03,42.805,6.029,-0.04,0.0,0.001,103.0,105.0,102.0,13.4,1505.2,330.6,-0.7,1.8,2470.585,13.28,0.04,270.0
2021-09-12T01:49:03,42.805,6.029,-0.025,-0.019,0.0,104.0,103.0,101.0,13.4,1505.2,330.9,-0.8,1.8,2470.575,13.28,0.031,232.8
2021-09-12T01:52:03,42.805,6.029,-0.02,-0.005,-0.026,104.0,103.0,101.0,13.4,1505.2,327.2,-0.8,1.8,2470.568,13.28,0.02,256.0
2021-09-12T01:55:03,42.805,6.029,-0.032,0.002,-0.005,103.0,103.0,102.0,13.3,1505.2,328.7,-0.7,1.8,2470.566,13.28,0.032,273.6
2021-09-12T01:58:03,42.805,6.029,-0.032,0.002,-0.006,103.0,103.0,101.0,13.3,1505.2,325.8,-0.8,1.8,2470.585,13.28,0.032,273.6
2021-09-12T02:04:03,42.805,6.029,-0.032,-0.01,-0.038,104.0,102.0,102.0,13.4,1505.2,329.6,-0.8,1.8,2470.596,13.28,0.033,252.6
2021-09-12T02:07:03,42.805,6.029,-0.009,-0.011,0.005,103.0,103.0,101.0,13.4,1505.2,330.0,-0.7,1.8,2470.614,13.28,0.014,219.3
2021-09-12T02:10:03,42.805,6.029,-0.035,-0.024,-0.013,103.0,102.0,101.0,13.3,1505.2,328.2,-0.7,1.8,2470.588,13.28,0.042,235.6
2021-09-12T02:13:03,42.805,6.029,-0.043,-0.019,-0.028,103.0,103.0,102.0,13.3,1505.2,327.3,-0.7,1.8,2470.601,13.28,0.047,246.2
2021-09-12T02:16:03,42.805,6.029,-0.032,-0.006,-0.002,101.0,103.0,103.0,13.4,1505.2,327.2,-0.8,1.8,2470.604,13.28,0.032,259.4
2021-09-12T02:19:03,42.805,6.029,-0.024,-0.024,0.002,103.0,102.0,102.0,13.3,1505.2,327.1,-0.7,1.8,2470.59,13.28,0.033,225.0
2021-09-12T02:22:03,42.805,6.029,-0.028,-0.002,-0.001,103.0,103.0,102.0,13.3,1505.2,328.5,-0.7,1.9,2470.557,13.28,0.028,265.9
2021-09-12T02:25:03,42.805,6.029,-0.021,0.0,0.002,104.0,104.0,102.0,13.4,1505.2,325.6,-0.7,1.8,2470.581,13.28,0.021,270.0
2021-09-12T02:28:03,42.805,6.029,-0.025,-0.009,-0.023,102.0,103.0,102.0,13.3,1505.2,328.9,-0.7,1.8,2470.568,13.28,0.026,250.2
2021-09-12T02:31:03,42.805,6.029,-0.001,0.0,-0.014,103.0,103.0,103.0,13.3,1505.2,327.7,-0.8,1.8,2470.54,13.28,0.001,270.0
2021-09-12T02:34:03,42.805,6.029,-0.026,-0.01,0.0,103.0,102.0,102.0,13.4,1505.2,329.2,-0.8,1.8,2470.585,13.28,0.027,249.0
2021-09-12T02:37:03,42.805,6.029,-0.004,-0.027,-0.021,102.0,102.0,103.0,13.3,1505.2,327.8,-0.8,1.8,2470.543,13.28,0.027,188.4
2021-09-12T02:40:03,42.805,6.029,-0.039,0.01,0.023,104.0,103.0,101.0,13.4,1505.2,329.0,-0.8,1.8,2470.546,13.28,0.04,284.4
2021-09-12T02:43:03,42.805,6.029,-0.022,-0.025,-0.009,103.0,103.0,102.0,13.4,1505.2,329.8,-0.7,1.8,2470.56,13.28,0.033,221.3
2021-09-12T02:46:03,42.805,6.029,-0.033,-0.004,0.011,105.0,103.0,100.0,13.4,1505.2,325.6,-0.8,1.8,2470.548,13.28,0.033,263.1
2021-09-12T02:49:03,42.805,6.029,-0.029,0.015,-0.003,104.0,103.0,102.0,13.3,1505.2,330.2,-0.8,1.8,2470.551,13.28,0.032,297.4
2021-09-12T02:52:03,42.805,6.029,-0.026,0.001,-0.021,102.0,104.0,102.0,13.3,1505.2,325.2,-0.7,1.8,2470.55,13.28,0.026,272.2
2021-09-12T02:55:03,42.805,6.029,-0.037,-0.01,-0.025,104.0,102.0,102.0,13.4,1505.2,327.4,-0.8,1.8,2470.547,13.28,0.038,254.9
2021-09-12T02:58:03,42.805,6.029,-0.019,-0.021,-0.016,104.0,104.0,101.0,13.3,1505.2,328.8,-0.7,1.8,2470.517,13.28,0.028,222.1
2021-09-12T03:04:03,42.805,6.029,-0.047,-0.002,-0.037,103.0,103.0,100.0,13.4,1505.2,328.5,-0.7,1.8,2470.598,13.28,0.047,267.6
2021-09-12T03:07:03,42.805,6.029,-0.025,-0.021,-0.015,103.0,102.0,101.0,13.3,1505.2,331.6,-0.8,1.8,2470.571,13.28,0.032,230.0
2021-09-12T03:10:03,42.805,6.029,-0.028,-0.025,-0.024,103.0,104.0,102.0,13.4,1505.2,327.6,-0.7,1.8,2470.568,13.28,0.037,228.2
2021-09-12T03:13:03,42.805,6.029,-0.031,-0.007,-0.02,103.0,104.0,101.0,13.4,1505.2,328.5,-0.8,1.8,2470.555,13.28,0.031,257.3
2021-09-12T03:16:03,42.805,6.029,-0.014,-0.018,-0.031,104.0,102.0,101.0,13.3,1505.2,326.8,-0.7,1.8,2470.499,13.28,0.022,217.9
2021-09-12T03:19:03,42.805,6.029,-0.026,0.002,-0.019,103.0,102.0,102.0,13.4,1505.2,324.7,-0.7,1.8,2470.553,13.28,0.026,274.4
2021-09-12T03:22:03,42.805,6.029,-0.029,-0.012,-0.001,103.0,103.0,103.0,13.4,1505.2,328.5,-0.7,1.8,2470.539,13.28,0.031,247.5
2021-09-12T03:25:03,42.805,6.029,-0.022,-0.024,-0.031,102.0,103.0,102.0,13.3,1505.2,327.6,-0.7,1.8,2470.559,13.28,0.032,222.5
2021-09-12T03:28:03,42.805,6.029,-0.036,-0.01,-0.007,103.0,103.0,102.0,13.4,1505.2,331.3,-0.8,1.8,2470.516,13.28,0.037,254.5
2021-09-12T03:31:03,42.805,6.029,-0.042,-0.006,-0.03,104.0,102.0,102.0,13.3,1505.2,328.3,-0.7,1.8,2470.509,13.28,0.042,261.9
2021-09-12T03:34:03,42.805,6.029,-0.033,-0.016,-0.004,102.0,102.0,103.0,13.4,1505.2,327.5,-0.7,1.8,2470.525,13.28,0.036,244.1
2021-09-12T03:37:03,42.805,6.029,-0.038,-0.008,-0.023,104.0,102.0,103.0,13.3,1505.2,330.3,-0.7,1.8,2470.518,13.28,0.038,258.1
2021-09-12T03:40:03,42.805,6.029,-0.045,-0.014,-0.047,106.0,103.0,102.0,13.3,1505.2,326.3,-0.7,1.8,2470.531,13.28,0.047,252.7
2021-09-12T03:43:03,42.805,6.029,-0.029,-0.032,-0.024,104.0,104.0,100.0,13.4,1505.2,329.1,-0.8,1.8,2470.577,13.28,0.043,222.2
2021-09-12T03:46:03,42.805,6.029,-0.008,-0.007,0.001,104.0,104.0,101.0,13.4,1505.2,327.4,-0.7,1.8,2470.567,13.28,0.01,228.8
2021-09-12T03:49:03,42.805,6.029,-0.017,-0.025,-0.031,104.0,104.0,102.0,13.4,1505.2,327.4,-0.8,1.8,2470.541,13.28,0.03,214.2
2021-09-12T03:52:03,42.805,6.029,-0.009,-0.014,-0.019,105.0,104.0,102.0,13.3,1505.2,327.2,-0.7,1.9,2470.533,13.28,0.016,212.7
2021-09-12T03:55:03,42.805,6.029,-0.027,-0.035,-0.048,104.0,104.0,103.0,13.4,1505.2,327.4,-0.7,1.8,2470.51,13.28,0.044,217.7
2021-09-12T03:58:03,42.805,6.029,-0.049,-0.026,-0.044,104.0,104.0,103.0,13.4,1505.2,328.1,-0.7,1.8,2470.516,13.28,0.055,242.1
2021-09-12T04:04:03,42.805,6.029,-0.019,-0.01,-0.003,104.0,103.0,102.0,13.4,1505.2,329.1,-0.8,1.8,2470.542,13.28,0.021,242.2
2021-09-12T04:07:03,42.805,6.029,-0.011,-0.006,0.007,105.0,104.0,102.0,13.4,1505.2,326.3,-0.8,1.8,2470.543,13.28,0.012,241.4
2021-09-12T04:10:03,42.805,6.029,-0.02,-0.007,-0.006,105.0,104.0,102.0,13.4,1505.2,329.9,-0.8,1.8,2470.567,13.28,0.021,250.7
2021-09-12T04:13:03,42.805,6.029,-0.018,-0.016,-0.04,104.0,103.0,104.0,13.4,1505.2,328.5,-0.7,1.8,2470.561,13.28,0.024,228.4
2021-09-12T04:16:03,42.805,6.029,-0.002,-0.012,0.003,106.0,103.0,102.0,13.4,1505.2,328.9,-0.8,1.8,2470.535,13.28,0.012,189.5
2021-09-12T04:19:03,42.805,6.029,-0.025,-0.018,-0.011,105.0,104.0,101.0,13.4,1505.2,328.8,-0.8,1.8,2470.514,13.28,0.03,234.2
2021-09-12T04:22:03,42.805,6.029,-0.021,-0.014,0.0,104.0,104.0,102.0,13.4,1505.2,328.6,-0.8,1.8,2470.52,13.28,0.025,236.3
2021-09-12T04:25:03,42.805,6.029,-0.021,-0.032,-0.005,104.0,104.0,102.0,13.4,1505.2,327.9,-0.8,1.8,2470.523,13.28,0.038,213.3
2021-09-12T04:28:03,42.805,6.029,-0.007,-0.023,-0.017,105.0,105.0,102.0,13.4,1505.2,325.8,-0.7,1.8,2470.552,13.28,0.024,196.9
2021-09-12T04:31:03,42.805,6.029,-0.017,-0.009,-0.012,105.0,106.0,102.0,13.4,1505.2,327.5,-0.8,1.8,2470.518,13.28,0.019,242.1
2021-09-12T04:34:03,42.805,6.029,-0.028,-0.019,0.003,104.0,105.0,102.0,13.3,1505.2,327.4,-0.7,1.9,2470.518,13.28,0.033,235.8
2021-09-12T04:37:03,42.805,6.029,-0.002,-0.023,-0.032,102.0,104.0,102.0,13.4,1505.2,329.3,-0.7,1.8,2470.585,13.28,0.023,185.0
2021-09-12T04:40:03,42.805,6.029,-0.022,-0.019,-0.002,104.0,104.0,102.0,13.3,1505.2,327.8,-0.7,1.8,2470.497,13.28,0.029,229.2
2021-09-12T04:43:03,42.805,6.029,-0.02,-0.007,-0.04,104.0,105.0,102.0,13.4,1505.2,330.2,-0.7,1.8,2470.538,13.28,0.021,250.7
2021-09-12T04:46:03,42.805,6.029,-0.021,-0.012,-0.009,104.0,105.0,102.0,13.3,1505.2,328.6,-0.7,1.8,2470.493,13.28,0.024,240.3
2021-09-12T04:49:03,42.805,6.029,-0.031,0.001,-0.014,106.0,104.0,103.0,13.4,1505.2,327.5,-0.8,1.8,2470.495,13.28,0.031,271.8
2021-09-12T04:52:03,42.805,6.029,0.0,-0.027,-0.024,105.0,103.0,102.0,13.3,1505.2,330.9,-0.8,1.8,2470.518,13.28,0.026,180.0
2021-09-12T04:55:03,42.805,6.029,-0.007,-0.002,0.0,105.0,103.0,103.0,13.4,1505.2,329.3,-0.8,1.8,2470.496,13.28,0.007,254.1
2021-09-12T04:58:03,42.805,6.029,-0.021,-0.016,-0.013,105.0,105.0,102.0,13.4,1505.2,329.3,-0.8,1.8,2470.527,13.28,0.026,232.7
2021-09-12T05:04:03,42.805,6.029,-0.034,-0.023,-0.018,105.0,103.0,102.0,13.3,1505.2,329.9,-0.8,1.8,2470.535,13.28,0.041,235.9
2021-09-12T05:07:03,42.805,6.029,-0.027,0.002,-0.024,105.0,103.0,103.0,13.3,1505.2,325.1,-0.8,1.8,2470.532,13.28,0.027,274.2
2021-09-12T05:10:03,42.805,6.029,-0.004,-0.013,-0.006,103.0,104.0,104.0,13.4,1505.2,327.7,-0.8,1.8,2470.569,13.28,0.013,197.1
2021-09-12T05:13:03,42.805,6.029,-0.012,-0.007,-0.022,105.0,104.0,102.0,13.4,1505.2,330.8,-0.8,1.9,2470.505,13.28,0.013,239.7
2021-09-12T05:16:03,42.805,6.029,-0.037,-0.016,0.0,105.0,104.0,102.0,13.3,1505.2,325.7,-0.7,1.8,2470.544,13.28,0.04,246.6
2021-09-12T05:19:03,42.805,6.029,-0.016,0.001,-0.004,103.0,103.0,103.0,13.4,1505.2,326.5,-0.8,1.8,2470.518,13.28,0.016,273.6
2021-09-12T05:22:03,42.805,6.029,-0.02,-0.024,0.014,104.0,103.0,102.0,13.4,1505.2,331.6,-0.7,1.8,2470.504,13.28,0.031,219.8
2021-09-12T05:25:03,42.805,6.029,-0.037,-0.019,-0.024,104.0,105.0,103.0,13.3,1505.2,325.2,-0.8,1.8,2470.519,13.28,0.041,242.8
2021-09-12T05:28:03,42.805,6.029,-0.032,-0.022,-0.011,104.0,104.0,102.0,13.3,1505.2,328.2,-0.8,1.8,2470.52,13.28,0.038,235.5
2021-09-12T05:31:03,42.805,6.029,-0.03,-0.01,-0.014,104.0,104.0,102.0,13.4,1505.2,327.9,-0.8,1.8,2470.52,13.28,0.031,251.6
2021-09-12T05:34:03,42.805,6.029,-0.043,0.007,-0.035,103.0,103.0,103.0,13.4,1505.2,327.6,-0.7,1.8,2470.498,13.28,0.043,279.2
2021-09-12T05:37:03,42.805,6.029,-0.019,-0.009,0.012,105.0,104.0,102.0,13.3,1505.2,327.2,-0.8,1.8,2470.54,13.28,0.021,244.7
2021-09-12T05:40:03,42.805,6.029,-0.031,-0.018,-0.011,104.0,104.0,103.0,13.3,1505.2,328.1,-0.8,1.8,2470.516,13.28,0.035,239.9
2021-09-12T05:43:03,42.805,6.029,-0.006,-0.002,-0.005,105.0,104.0,102.0,13.4,1505.2,329.2,-0.7,1.8,2470.515,13.28,0.006,251.6
2021-09-12T05:46:03,42.805,6.029,-0.021,-0.005,-0.002,104.0,104.0,102.0,13.4,1505.2,325.7,-0.8,1.8,2470.474,13.28,0.021,256.6
2021-09-12T05:49:03,42.805,6.029,-0.046,0.0,-0.029,104.0,104.0,102.0,13.3,1505.2,326.3,-0.7,1.8,2470.484,13.28,0.046,270.0
2021-09-12T05:52:03,42.805,6.029,-0.034,0.002,-0.007,105.0,104.0,102.0,13.4,1505.2,327.6,-0.8,1.8,2470.507,13.28,0.034,273.4
2021-09-12T05:55:03,42.805,6.029,-0.024,-0.011,-0.023,105.0,104.0,103.0,13.4,1505.2,328.9,-0.7,1.8,2470.492,13.28,0.026,245.4
2021-09-12T05:58:03,42.805,6.029,-0.031,-0.008,-0.01,105.0,102.0,103.0,13.4,1505.2,329.5,-0.7,1.8,2470.505,13.28,0.032,255.5
2021-09-12T06:04:03,42.805,6.029,-0.03,-0.008,-0.018,106.0,104.0,102.0,13.4,1505.2,327.2,-0.8,1.8,2470.533,13.28,0.031,255.1
2021-09-12T06:07:03,42.805,6.029,-0.041,-0.007,0.003,105.0,105.0,102.0,13.4,1505.2,328.7,-0.7,1.8,2470.572,13.28,0.041,260.3
2021-09-12T06:10:03,42.805,6.029,-0.033,-0.012,-0.012,105.0,105.0,104.0,13.4,1505.2,325.2,-0.8,1.8,2470.519,13.28,0.035,250.0
2021-09-12T06:13:03,42.805,6.029,-0.028,0.023,0.0,104.0,106.0,103.0,13.3,1505.2,327.0,-0.7,1.8,2470.534,13.28,0.036,309.4
2021-09-12T06:16:03,42.805,6.029,0.0,-0.009,0.009,104.0,104.0,102.0,13.4,1505.2,328.0,-0.7,1.9,2470.542,13.28,0.009,180.0
2021-09-12T06:19:03,42.805,6.029,-0.032,-0.011,-0.004,105.0,105.0,101.0,13.4,1505.2,327.1,-0.8,1.8,2470.556,13.28,0.033,251.0
2021-09-12T06:22:03,42.805,6.029,-0.042,-0.004,0.01,105.0,104.0,102.0,13.4,1505.2,329.3,-0.7,1.8,2470.535,13.28,0.042,264.6
2021-09-12T06:25:03,42.805,6.029,-0.045,0.0,-0.029,104.0,104.0,102.0,13.4,1505.2,329.6,-0.7,1.8,2470.54,13.28,0.045,270.0
2021-09-12T06:28:03,42.805,6.029,-0.036,-0.005,-0.039,105.0,105.0,103.0,13.3,1505.2,330.1,-0.8,1.9,2470.505,13.28,0.036,262.1
2021-09-12T06:31:03,42.805,6.029,-0.02,-0.007,-0.006,105.0,105.0,102.0,13.3,1505.2,327.0,-0.7,1.8,2470.509,13.28,0.021,250.7
2021-09-12T06:34:03,42.805,6.029,-0.026,0.007,-0.032,106.0,104.0,103.0,13.4,1505.2,328.9,-0.8,1.8,2470.518,13.28,0.026,285.1
2021-09-12T06:37:03,42.805,6.029,-0.019,0.0,-0.017,105.0,104.0,102.0,13.4,1505.2,325.5,-0.7,1.8,2470.539,13.28,0.019,270.0
2021-09-12T06:40:03,42.805,6.029,-0.036,-0.004,-0.007,105.0,105.0,102.0,13.3,1505.2,327.4,-0.8,1.8,2470.553,13.28,0.036,263.7
2021-09-12T06:43:03,42.805,6.029,-0.041,0.017,0.0,105.0,104.0,102.0,13.3,1505.2,329.7,-0.7,1.8,2470.546,13.28,0.044,292.5
2021-09-12T06:46:03,42.805,6.029,-0.025,0.005,0.002,105.0,103.0,103.0,13.4,1505.2,329.5,-0.7,1.8,2470.546,13.28,0.025,281.3
2021-09-12T06:49:03,42.805,6.029,-0.042,-0.003,-0.006,105.0,105.0,103.0,13.4,1505.2,327.4,-0.8,1.8,2470.543,13.28,0.042,265.9
2021-09-12T06:52:03,42.805,6.029,-0.04,-0.01,-0.015,105.0,104.0,102.0,13.3,1505.2,327.4,-0.8,1.8,2470.551,13.28,0.041,256.0
2021-09-12T06:55:03,42.805,6.029,-0.025,0.0,-0.017,104.0,104.0,103.0,13.4,1505.2,330.7,-0.8,1.8,2470.554,13.28,0.025,270.0
2021-09-12T06:58:03,42.805,6.029,-0.035,0.002,-0.02,106.0,104.0,102.0,13.4,1505.2,325.7,-0.7,1.8,2470.515,13.28,0.035,273.3
2021-09-12T07:04:03,42.805,6.029,-0.042,0.005,-0.024,104.0,104.0,102.0,13.4,1505.2,326.8,-0.8,1.8,2470.608,13.28,0.042,276.8
2021-09-12T07:07:03,42.805,6.029,-0.035,0.0,-0.01,105.0,103.0,102.0,13.3,1505.2,328.8,-0.8,1.8,2470.556,13.28,0.035,270.0
2021-09-12T07:10:03,42.805,6.029,-0.031,-0.011,-0.008,105.0,104.0,102.0,13.3,1505.2,329.1,-0.7,1.8,2470.569,13.28,0.032,250.5
2021-09-12T07:13:03,42.805,6.029,-0.023,0.0,-0.026,104.0,106.0,103.0,13.4,1505.2,328.0,-0.8,1.9,2470.573,13.28,0.023,270.0
2021-09-12T07:16:03,42.805,6.029,-0.015,-0.014,-0.021,105.0,103.0,103.0,13.4,1505.2,327.9,-0.7,1.8,2470.582,13.28,0.02,227.0
2021-09-12T07:19:03,42.805,6.029,-0.037,-0.008,-0.025,105.0,104.0,103.0,13.3,1505.2,326.4,-0.8,1.8,2470.584,13.28,0.037,257.8
2021-09-12T07:22:03,42.805,6.029,-0.026,0.024,0.016,104.0,104.0,102.0,13.4,1505.2,331.1,-0.8,1.8,2470.584,13.28,0.035,312.7
2021-09-12T07:25:03,42.805,6.029,-0.039,0.011,-0.023,105.0,104.0,102.0,13.4,1505.2,328.3,-0.7,1.8,2470.581,13.28,0.04,285.7
2021-09-12T07:28:03,42.805,6.029,-0.018,0.0,-0.037,104.0,104.0,103.0,13.4,1505.2,328.7,-0.7,1.8,2470.576,13.28,0.018,270.0
2021-09-12T07:31:03,42.805,6.029,-0.04,0.0,-0.032,104.0,104.0,102.0,13.4,1505.2,325.3,-0.8,1.8,2470.569,13.28,0.04,270.0
2021-09-12T07:34:03,42.805,6.029,-0.047,-0.009,-0.003,104.0,104.0,103.0,13.4,1505.2,327.0,-0.8,1.8,2470.567,13.28,0.047,259.2
2021-09-12T07:37:03,42.805,6.029,-0.013,0.014,-0.01,105.0,105.0,102.0,13.4,1505.2,329.4,-0.8,1.8,2470.573,13.28,0.019,317.1
2021-09-12T07:40:03,42.805,6.029,-0.018,0.0,-0.004,104.0,104.0,103.0,13.3,1505.2,327.7,-0.7,1.8,2470.559,13.28,0.018,270.0
2021-09-12T07:43:03,42.805,6.029,-0.027,-0.017,-0.002,104.0,104.0,101.0,13.3,1505.2,328.3,-0.8,1.8,2470.603,13.28,0.031,237.8
2021-09-12T07:46:03,42.805,6.029,-0.046,-0.014,-0.04,106.0,104.0,102.0,13.3,1505.2,326.8,-0.7,1.8,2470.567,13.28,0.048,253.1
2021-09-12T07:49:03,42.805,6.029,-0.037,-0.015,-0.013,105.0,104.0,102.0,13.4,1505.2,327.2,-0.7,1.8,2470.569,13.28,0.039,247.9
2021-09-12T07:52:03,42.805,6.029,-0.019,-0.006,0.001,106.0,103.0,101.0,13.4,1505.2,327.1,-0.8,1.8,2470.569,13.28,0.019,252.5
2021-09-12T07:55:03,42.805,6.029,-0.001,-0.003,-0.026,103.0,104.0,101.0,13.3,1505.2,328.1,-0.7,1.8,2470.572,13.28,0.003,198.4
2021-09-12T07:58:03,42.805,6.029,-0.026,-0.007,0.015,105.0,103.0,102.0,13.4,1505.2,328.6,-0.8,1.8,2470.587,13.28,0.026,254.9
2021-09-12T08:04:03,42.805,6.029,-0.039,-0.009,0.0,103.0,104.0,102.0,13.3,1505.2,326.4,-0.7,1.8,2470.658,13.28,0.04,257.0
2021-09-12T08:07:03,42.805,6.029,-0.032,-0.003,-0.007,104.0,104.0,101.0,13.4,1505.2,325.4,-0.8,1.8,2470.659,13.28,0.032,264.6
2021-09-12T08:10:03,42.805,6.029,-0.018,0.017,-0.012,104.0,104.0,101.0,13.4,1505.2,328.8,-0.8,1.8,2470.622,13.28,0.024,313.4
2021-09-12T08:13:03,42.805,6.029,-0.033,-0.006,-0.023,103.0,104.0,100.0,13.4,1505.2,327.3,-0.8,1.8,2470.662,13.28,0.033,259.7
2021-09-12T08:16:03,42.805,6.029,-0.032,-0.005,-0.017,103.0,103.0,102.0,13.4,1505.2,327.4,-0.7,1.8,2470.63,13.28,0.032,261.1
2021-09-12T08:19:03,42.805,6.029,-0.034,-0.028,-0.025,104.0,103.0,101.0,13.4,1505.2,329.2,-0.7,1.8,2470.643,13.28,0.044,230.5
2021-09-12T08:22:03,42.805,6.029,-0.015,-0.002,-0.019,102.0,101.0,102.0,13.4,1505.2,326.4,-0.8,1.8,2470.627,13.28,0.015,262.4
2021-09-12T08:25:03,42.805,6.029,-0.05,0.004,-0.053,102.0,102.0,101.0,13.4,1505.2,328.6,-0.8,1.8,2470.68,13.28,0.05,274.6
2021-09-12T08:28:03,42.805,6.029,-0.022,-0.007,-0.004,102.0,102.0,100.0,13.3,1505.2,328.1,-0.8,1.8,2470.597,13.28,0.023,252.4
2021-09-12T08:31:03,42.805,6.029,-0.037,0.003,-0.031,101.0,102.0,101.0,13.4,1505.2,329.8,-0.7,1.8,2470.654,13.28,0.037,274.6
2021-09-12T08:34:03,42.805,6.029,-0.028,-0.005,-0.008,102.0,102.0,100.0,13.4,1505.2,325.7,-0.7,1.8,2470.611,13.28,0.028,259.9
2021-09-12T08:37:03,42.805,6.029,-0.026,0.019,0.007,103.0,102.0,101.0,13.3,1505.2,329.4,-0.7,1.8,2470.622,13.28,0.032,306.2
2021-09-12T08:40:03,42.805,6.029,-0.016,-0.01,-0.005,102.0,103.0,101.0,13.4,1505.2,329.2,-0.7,1.8,2470.633,13.28,0.018,238.0
2021-09-12T08:43:03,42.805,6.029,-0.034,-0.012,0.029,103.0,102.0,101.0,13.4,1505.2,328.2,-0.8,1.8,2470.646,13.28,0.036,250.6
2021-09-12T08:46:03,42.805,6.029,-0.026,0.01,-0.002,104.0,103.0,101.0,13.4,1505.2,326.6,-0.8,1.8,2470.598,13.28,0.027,291.0
2021-09-12T08:49:03,42.805,6.029,-0.031,-0.008,-0.001,103.0,102.0,101.0,13.4,1505.2,327.2,-0.8,1.9,2470.623,13.28,0.032,255.5
2021-09-12T08:52:03,42.805,6.029,-0.043,-0.004,-0.039,102.0,102.0,101.0,13.4,1505.2,329.6,-0.7,1.8,2470.627,13.28,0.043,264.7
2021-09-12T08:55:03,42.805,6.029,-0.019,-0.023,-0.035,102.0,101.0,101.0,13.3,1505.2,326.0,-0.7,1.8,2470.62,13.28,0.029,219.6
2021-09-12T08:58:03,42.805,6.029,-0.027,0.0,-0.014,102.0,102.0,101.0,13.3,1505.2,325.4,-0.7,1.8,2470.632,13.28,0.026,270.0
2021-09-12T09:04:03,42.805,6.029,-0.067,-0.001,-0.019,103.0,103.0,100.0,13.3,1505.2,327.5,-0.7,1.8,2470.69,13.28,0.067,269.1
2021-09-12T09:07:03,42.805,6.029,-0.042,-0.022,-0.035,104.0,102.0,101.0,13.4,1505.2,327.1,-0.8,1.8,2470.679,13.28,0.047,242.4
2021-09-12T09:10:03,42.805,6.029,-0.037,0.003,-0.034,102.0,102.0,101.0,13.4,1505.2,326.7,-0.8,1.8,2470.659,13.28,0.037,274.6
2021-09-12T09:13:03,42.805,6.029,-0.027,-0.021,-0.054,103.0,103.0,100.0,13.4,1505.2,328.1,-0.7,1.8,2470.688,13.28,0.034,232.1
2021-09-12T09:16:03,42.805,6.029,-0.035,-0.011,-0.011,103.0,103.0,101.0,13.3,1505.2,327.1,-0.8,1.8,2470.691,13.28,0.036,252.6
2021-09-12T09:19:03,42.805,6.029,-0.032,0.008,-0.008,103.0,102.0,102.0,13.4,1505.2,328.3,-0.8,1.8,2470.697,13.28,0.032,284.0
2021-09-12T09:22:03,42.805,6.029,-0.024,-0.011,-0.023,102.0,103.0,101.0,13.4,1505.2,330.8,-0.7,1.8,2470.71,13.28,0.026,245.4
2021-09-12T09:25:03,42.805,6.029,-0.013,0.0,-0.014,102.0,101.0,101.0,13.3,1505.2,329.8,-0.7,1.8,2470.636,13.28,0.013,270.0
2021-09-12T09:28:03,42.805,6.029,-0.042,-0.027,-0.017,103.0,102.0,101.0,13.4,1505.2,329.0,-0.8,1.8,2470.668,13.28,0.049,237.3
2021-09-12T09:31:03,42.805,6.029,-0.016,-0.009,-0.04,102.0,102.0,102.0,13.4,1505.2,328.7,-0.7,1.8,2470.664,13.28,0.018,240.6
2021-09-12T09:34:03,42.805,6.029,-0.023,0.011,-0.014,102.0,103.0,101.0,13.4,1505.2,328.9,-0.8,1.8,2470.666,13.28,0.025,295.6
2021-09-12T09:37:03,42.805,6.029,-0.024,-0.014,-0.014,103.0,101.0,102.0,13.4,1505.2,329.4,-0.7,1.8,2470.649,13.28,0.027,239.7
2021-09-12T09:40:03,42.805,6.029,-0.035,-0.022,-0.005,103.0,102.0,101.0,13.4,1505.2,325.6,-0.8,1.8,2470.67,13.28,0.041,237.8
2021-09-12T09:43:03,42.805,6.029,-0.023,-0.01,0.002,102.0,100.0,101.0,13.3,1505.2,331.0,-0.8,1.9,2470.699,13.28,0.025,246.5
2021-09-12T09:46:03,42.805,6.029,-0.018,-0.012,0.003,101.0,102.0,101.0,13.3,1505.2,331.6,-0.7,1.8,2470.659,13.28,0.021,236.3
2021-09-12T09:49:03,42.805,6.029,-0.041,-0.01,-0.016,103.0,102.0,102.0,13.4,1505.2,326.4,-0.8,1.8,2470.674,13.28,0.042,256.3
2021-09-12T09:52:03,42.805,6.029,-0.021,-0.013,-0.036,103.0,102.0,102.0,13.4,1505.2,329.8,-0.8,1.8,2470.666,13.28,0.024,238.2